Weather in Murom

Russia / Belgorod Oblast     50°18′07″N   36°42′33″E
temp.,
°C
wind,
m/s
gust,
m/s
humid.,
%
clouds,
%
prec.,
mm/h
press.,
hPa
HPBL,
m
13 june, sun
sun1300:00+15wnw23955 0.0 101050
03:00+14w23950 0.0 101042
06:00+15sw24950 0.0 1010140
09:00+19sw347968 0.0 1010503
12:00+22ssw4569100 0.4 10101167
15:00+23ssw466619 2.0 10091365
18:00+19ssw348227 1.4 100984
21:00+17s22836 1.7 101018
14 june, mon
mon1400:00+15s23895 0.0 101130
03:00+14sse33905 0.0 101138
06:00+15se259276 0.0 1012124
09:00+20se347712 0.0 1013445
12:00+24sse45625 1.0 10141343
15:00+24se336280 1.3 10141448
18:00+23e237698 1.4 1014379
21:00+18ene128455 2.6 101411
15 june, tue
tue1500:00+17nne228447 0.0 101411
03:00+16nne228911 0.0 101421
06:00+16n369293 0.0 1014139
09:00+21nne458332 0.0 1013388
12:00+24nne45654 1.8 10121125
15:00+24nne45655 2.3 10111328
18:00+23nne23764 0.8 1010894
21:00+18n229080 1.9 101025
16 june, wed
wed1600:00+18n3391100 1.0 100954
03:00+16n2295100 2.8 100932
06:00+17nnw3596100 1.7 1009164
09:00+20n3486100 3.5 1009208
12:00+19wnw1286100 4.2 1010259
15:00+18wnw2495100 5.4 1010217
18:00+21nw358899 1.4 1010273
21:00+18n4796100 6.4 1011161
17 june, thu
thu1700:00+17ne2399100 3.8 1012115
03:00+17ne249999 6.6 1013178
06:00+17ne4898100 1.1 1013446
09:00+18ene469482 1.9 1015521
12:00+21ne568175 0.1 1016763
15:00+22ne6780100 1.9 1017932
18:00+21ne7118999 1.6 1017741
21:00+18ne6148747 1.6 1019631